Burns, OR

8:25 PM PDT on August 25, 2016 (GMT -0700)
Burns Municipal

Weather History for KBNO - May, 2013

Change the Weather History Date:

Saturday, May 18, 2013

  Actual Average Record
Temperature  
Mean Temperature 49 °F 52 °F  
Max Temperature 63 °F 67 °F 93 °F (1954)
Min Temperature 35 °F 37 °F 24 °F (2003)
Degree Days  
Heating Degree Days 16 13  
Month to date heating degree days 175 278  
Since 1 July heating degree days 7016 7318  
Cooling Degree Days 0 0  
Month to date cooling degree days 1 0  
Year to date cooling degree days 1 0  
Moisture  
Dew Point 36 °F    
Average Humidity 61    
Maximum Humidity 92    
Minimum Humidity 29    
Precipitation  
Precipitation 0.03 in 0.04 in 0.46 in (1981)
Month to date precipitation 0.23 0.67  
Year to date precipitation 1.54 4.90  
Sea Level Pressure  
Sea Level Pressure 30.09 in    
Wind  
Wind Speed 8 mph (WSW)    
Max Wind Speed 26 mph    
Max Gust Speed 31 mph    
Visibility 10 miles    
Events Rain , Snow    
T = Trace of Precipitation, MM = Missing Value Source: NWS Daily Summary

Daily Weather History Graph

Daily Weather History Graph

Search for Another Location

Airport or City:

Trip Planner

Search our weather history database for the weather conditions in past years. The results will help you decide how hot, cold, wet, or windy it might be!

Date:

Astronomy

May. 18, 2013 Rise Set
Actual Time 5:27 AM PDT 8:17 PM PDT
Civil Twilight 4:54 AM PDT 8:51 PM PDT
Nautical Twilight 4:11 AM PDT 9:33 PM PDT
Astronomical Twilight 3:22 AM PDT 10:23 PM PDT
Moon 1:13 PM PDT (5/18) 1:35 AM PDT (5/18)
Length of Visible Light 15h 57m
Length of Day
14h 50m
First Quarter, 56% of the Moon is Illuminated
May 18
First Quarter
May 24
Full
May 31
Last Quarter
Jun 8
New
Jun 16
First Quarter

Hourly Weather History & Observations

Time (PDT) Temp. Windchill Dew Point Humidity Pressure Visibility Wind Dir Wind Speed Gust Speed Precip Events Conditions
12:53 AM 42.1 °F 36.1 °F 36.0 °F 79% 30.01 in 10.0 mi West 10.4 mph - N/A   Clear
1:53 AM 39.0 °F 31.8 °F 35.1 °F 86% 30.01 in 9.0 mi West 11.5 mph - 0.00 in   Unknown
2:53 AM 39.0 °F 32.3 °F 35.1 °F 86% 30.04 in 10.0 mi West 10.4 mph - 0.00 in   Mostly Cloudy
3:53 AM 39.0 °F 33.4 °F 35.1 °F 86% 30.03 in 10.0 mi West 8.1 mph - N/A   Clear
4:53 AM 36.0 °F 30.3 °F 33.1 °F 89% 30.06 in 9.0 mi West 6.9 mph - 0.00 in Snow Light Snow
5:53 AM 37.0 °F 31.0 °F 34.0 °F 89% 30.07 in 9.0 mi West 8.1 mph - 0.00 in Snow Light Snow
6:53 AM 41.0 °F 35.2 °F 35.1 °F 79% 30.07 in 10.0 mi WSW 9.2 mph - 0.00 in   Clear
7:53 AM 46.9 °F - 36.0 °F 66% 30.07 in 10.0 mi SW 6.9 mph - N/A   Clear
8:53 AM 48.9 °F - 35.1 °F 59% 30.09 in 10.0 mi South 5.8 mph - N/A   Partly Cloudy
9:53 AM 53.1 °F - 34.0 °F 48% 30.08 in 10.0 mi Variable 4.6 mph - N/A   Scattered Clouds
10:53 AM 55.9 °F - 33.1 °F 42% 30.07 in 10.0 mi SW 9.2 mph - N/A   Clear
11:53 AM 57.9 °F - 30.0 °F 35% 30.07 in 10.0 mi WSW 11.5 mph 16.1 mph N/A   Mostly Cloudy
12:53 PM 57.9 °F - 33.1 °F 39% 30.06 in 10.0 mi West 4.6 mph 19.6 mph 0.00 in   Overcast
1:53 PM 60.1 °F - 30.0 °F 32% 30.05 in 10.0 mi WSW 8.1 mph - N/A   Mostly Cloudy
2:53 PM 61.0 °F - 28.9 °F 30% 30.05 in 10.0 mi WSW 13.8 mph - N/A   Overcast
3:53 PM 60.1 °F - 37.9 °F 44% 30.06 in 10.0 mi West 12.7 mph - 0.00 in Rain Light Rain
4:53 PM 57.9 °F - 37.0 °F 46% 30.09 in 10.0 mi WNW 10.4 mph - N/A   Mostly Cloudy
5:53 PM 52.0 °F - 39.0 °F 61% 30.11 in 10.0 mi SW 20.7 mph 27.6 mph N/A   Overcast
6:53 PM 48.0 °F - 43.0 °F 83% 30.13 in 10.0 mi West 10.4 mph - 0.03 in Rain Light Rain
7:53 PM 48.0 °F - 45.0 °F 89% 30.13 in 10.0 mi Calm Calm - 0.00 in   Overcast
8:53 PM 46.9 °F - 39.9 °F 77% 30.14 in 10.0 mi NW 8.1 mph - N/A   Mostly Cloudy
9:53 PM 41.0 °F 37.1 °F 37.9 °F 89% 30.17 in 10.0 mi WSW 5.8 mph - N/A   Partly Cloudy
10:53 PM 39.9 °F - 37.0 °F 89% 30.18 in 10.0 mi Calm Calm - N/A   Clear
11:53 PM 39.0 °F - 37.0 °F 93% 30.18 in 10.0 mi Calm Calm - N/A   Partly Cloudy